Location: Syracuse
(43.0480°N, 76.1480°W)
Time: 17:06:25
(UTC-04:00)

Daily predictions for brighter satellites

Satellite Brightness Start Highest point End
(mag) Time Altitude Azimuth Time Altitude Azimuth Time Altitude Azimuth
Meteor 1-29 4.3 20:24:44 10° NE 20:27:24 20° E 20:30:02 10° SE
Cosmos 2322 Rocket 3.0 20:23:05 10° SSE 20:27:49 29° ESE 20:32:36 10° NE
H-2A R/B 3.2 20:26:03 10° S 20:29:56 69° W 20:33:48 10° NNW
Meteor 2-3 Rocket 4.2 20:24:48 10° NNW 20:30:28 70° W 20:36:11 10° S
Envisat 3.6 20:27:21 10° SE 20:32:04 40° ENE 20:36:47 10° N
Cosmos 1302 Rocket 4.0 20:27:04 10° S 20:32:13 68° ESE 20:37:23 10° NNE
Cosmos 1315 Rocket 2.8 20:30:49 10° N 20:34:55 71° E 20:38:55 10° SSE
Cosmos 2360 Rocket 3.8 20:36:02 10° SE 20:38:40 13° E 20:41:19 10° ENE
Cosmos 1980 Rocket 2.4 20:33:09 10° SSW 20:38:50 83° WNW 20:44:35 10° NNE
Cosmos 2026 Rocket 4.3 20:36:13 10° N 20:42:17 50° ENE 20:48:13 10° SSE
USA 234 3.4 20:35:57 10° ESE 20:42:27 73° NE 20:48:59 10° NW
Intercosmos 25 Rocket 3.8 20:44:30 10° SSE 20:47:24 33° E 20:50:55 10° NNE
Cosmos 1825 2.7 20:45:05 10° N 20:48:42 41° ENE 20:52:19 10° SSE
CZ-2D R/B 3.9 20:46:31 10° S 20:50:21 59° W 20:54:13 10° NNW
SL-16 R/B 2.4 20:49:55 10° S 20:55:19 48° ESE 21:00:46 10° NE
ATLAS 5 CENTAUR R/B 3.3 20:56:01 10° NNW 21:01:23 35° NE 21:06:11 14° ESE
Cosmos 1862 3.8 20:57:45 10° N 21:01:35 41° ENE 21:04:33 16° SE
Cosmos 1634 Rocket 4.0 20:56:24 10° S 21:02:42 88° E 21:09:04 10° N
Cosmos 1092 Rocket 4.4 20:56:48 10° NNW 21:03:06 69° W 21:09:23 10° S
Helios 1B rocket 2.3 20:59:43 10° NNE 21:03:50 78° ESE 21:07:56 10° S
Cosmos 1707 Rocket 4.2 21:00:27 10° SSW 21:04:50 59° W 21:09:14 10° N
Lacrosse 4 Rocket 1.5 21:01:09 10° NNW 21:05:27 70° ENE 21:08:46 17° SE
ERS-1 Rocket 3.5 21:02:10 15° SE 21:05:56 40° ENE 21:10:37 10° N
USA 186 2.9 21:03:58 10° SSW 21:06:29 36° W 21:09:12 10° NNW
Cosmos 1655 Rocket 4.1 21:02:44 10° N 21:09:07 66° E 21:15:26 10° SSE
ERBS 2.7 21:07:06 10° NW 21:10:30 57° SW 21:12:44 20° SSE
Cosmos 1733 Rocket 3.2 21:06:17 10° N 21:10:42 58° E 21:14:14 15° SSE
Meteor 2-20 Rocket 4.4 21:05:03 10° N 21:11:12 87° E 21:17:21 10° S
SAR-Lupe-4 3.9 21:08:29 10° S 21:12:03 65° WSW 21:15:38 10° NNW
Cosmos 1939 Rocket 2.8 21:08:25 11° SSE 21:12:15 79° ENE 21:16:17 10° N
CENTAUR R/B 4.2 21:08:11 10° WSW 21:13:55 37° NW 21:20:25 10° NNE
ARGOS 4.3 21:11:28 17° ESE 21:14:22 27° ENE 21:18:50 10° N
Cosmos 1862 Rocket 3.7 21:13:34 10° S 21:17:55 56° E 21:22:19 10° NNE
SeaSat 1 3.5 21:17:14 19° ESE 21:20:01 32° NE 21:24:23 10° N
USA 229 DEB 4.5 21:17:19 10° SSE 21:22:49 27° ESE 21:28:24 10° ENE
USA 229 4.5 21:17:26 10° SSE 21:22:54 27° ESE 21:28:28 10° ENE
Cosmos 1408 2.9 21:20:32 10° NNW 21:24:12 64° W 21:27:28 12° S
Cosmos 1844 Rocket 4.5 21:20:50 10° N 21:24:34 18° NE 21:27:24 13° E
Cosmos 1992 Rocket 3.9 21:19:41 10° S 21:24:51 65° ESE 21:30:03 10° NNE
Atlas Centaur 2 3.9 21:23:07 10° SW 21:28:57 25° SSE 21:31:32 22° SE
Terra 3.8 21:31:11 12° ENE 21:32:20 13° ENE 21:34:27 10° NNE
Abrixas rocket 3.3 21:30:05 10° W 21:33:15 43° NNW 21:35:56 13° NE
MOS 1-B Rocket 4.5 21:32:23 24° ESE 21:35:22 40° ENE 21:40:36 10° N
Cosmos 2242 Rocket 4.3 21:31:57 10° SSW 21:36:24 57° W 21:40:50 10° N
Cosmos 1703 Rocket 4.3 21:37:03 31° ESE 21:37:57 34° E 21:41:58 10° NNE
YAOGAN 11 4.4 21:36:20 31° SE 21:38:00 48° ENE 21:42:12 10° N
Cosmos 2279 Rocket 4.1 21:37:44 10° SSW 21:43:59 77° W 21:50:15 10° N
Cosmos 2221 Rocket 4.4 21:44:07 30° E 21:44:14 30° E 21:48:05 10° NNE
Cosmos 1867 3.8 21:44:31 10° NNW 21:49:55 56° NE 21:52:05 34° ESE
MetOp-A 4.1 21:47:17 30° SSE 21:50:01 73° ENE 21:55:23 10° N
Cosmos 489 Rocket 4.5 21:45:48 10° NNW 21:52:11 75° ENE 21:55:24 31° SSE
Meteor 1-14 Rocket 4.4 21:47:57 10° N 21:53:32 58° ENE 21:55:46 35° SE
H-2A R/B 2.7 21:52:49 31° E 21:54:00 35° ENE 21:58:29 10° N
OAO 3 Rocket 4.1 21:51:59 10° WSW 21:56:21 32° S 21:56:38 32° S
YAOGAN 6 3.5 21:56:56 26° SSW 21:58:35 45° W 22:02:05 10° NNW
Cosmos 968 Rocket 3.4 21:59:57 10° NNW 22:05:09 81° ENE 22:06:50 45° SSE
SPOT 5 2.8 22:04:10 45° SSE 22:05:40 77° ENE 22:10:22 10° N
Cosmos 2263 Rocket 2.5 22:00:13 10° NNW 22:05:42 59° WSW 22:08:25 29° S
Meteor 1-25 Rocket 4.3 22:03:54 10° N 22:09:25 57° ENE 22:10:48 45° SE
COSMOS 2428 3.4 22:10:11 35° E 22:10:11 35° E 22:14:50 10° NE
Meteor 2-10 Rocket 3.8 22:05:36 14° SSW 22:10:38 80° W 22:16:28 10° N
Cosmos 2322 Rocket 3.4 22:06:21 10° SW 22:11:39 42° WNW 22:17:00 10° NNE
Sich 1 Rocket 3.8 22:10:44 10° NNW 22:15:11 66° W 22:16:31 42° SSW
Cosmos 2360 Rocket 2.2 22:16:10 10° SSW 22:21:50 85° WNW 22:27:33 10° NNE
H-2A R/B 2.8 22:23:59 39° ENE 22:23:59 39° ENE 22:27:40 10° N
BREEZE-M DEB (TANK) 4.4 22:20:35 10° WNW 22:24:46 72° N 22:40:03 10° E
USA 234 4.3 22:22:54 24° S 22:25:46 34° SW 22:31:37 10° WNW
Cosmos 1844 4.4 22:22:06 10° N 22:27:23 38° ENE 22:28:20 35° E
Cosmos 1908 Rocket 4.3 22:23:32 10° NNW 22:27:42 46° W 22:28:49 37° SW
Meteor 1-20 Rocket 4.1 22:23:34 10° N 22:29:08 74° E 22:30:10 58° SE
Cosmos 2322 3.7 22:25:27 19° SSW 22:29:42 85° WNW 22:35:27 10° NNE
USA 245 4.5 22:30:44 39° SSW 22:32:51 65° WSW 22:38:01 10° NNW
Cosmos 1606 4.4 22:38:58 24° NNE 22:38:58 24° NNE 22:40:42 10° NNE
Meteor 1-22 4.5 22:32:11 10° N 22:37:35 87° E 22:38:20 67° SSE
SL-16 R/B 4.2 22:34:51 10° WSW 22:39:39 28° NW 22:44:30 10° N
Meteor 2-6 Rocket 4.4 22:39:59 55° ESE 22:40:12 55° E 22:46:01 10° NNE
SPOT 1/Viking Rocket 3.6 22:40:22 58° SSW 22:41:16 72° WSW 22:46:31 10° NNW
IGS 5A 4.4 22:42:18 39° NE 22:42:18 39° NE 22:45:23 10° N
Cosmos 1782 Rocket 3.9 22:37:29 10° NNW 22:41:47 57° W 22:41:59 56° WSW
Lacrosse 4 Rocket 4.1 22:41:53 10° W 22:43:37 12° WSW 22:45:08 10° SW
Okean 2 Rocket 3.2 22:40:34 10° NNW 22:44:59 75° W 22:44:59 75° W
ATLAS 5 CENTAUR R/B 2.8 22:40:30 10° NW 22:46:22 53° WSW 22:47:45 45° SSW
Cosmos 1633 4.5 22:45:14 10° N 22:46:59 24° NNE 22:46:59 24° NNE
Cosmos 2333 Rocket 3.5 22:52:12 27° ENE 22:52:12 27° ENE 22:55:18 10° NE
Cosmos 2333 4.1 22:51:47 69° E 22:51:47 69° E 22:57:20 10° NNE
Cosmos 1782 3.8 22:53:34 43° N 22:53:34 43° N 22:56:20 10° N
Landsat 7 3.8 22:54:28 78° WNW 22:54:28 78° WNW 22:59:05 10° NNW
ARGOS 4.0 22:52:58 35° SW 22:54:24 42° W 22:59:30 10° NNW
Cosmos 2237 Rocket 3.9 22:59:46 21° ENE 22:59:46 21° ENE 23:02:01 10° NE
SeaSat 1 3.3 22:57:02 37° WSW 22:57:26 38° WSW 23:02:02 10° NW
Cosmos 2278 Rocket 3.0 22:54:37 10° N 22:59:54 38° ENE 23:00:07 38° ENE
Cosmos 1417 Rocket 4.3 23:03:56 73° SE 23:04:25 78° E 23:10:47 10° N
Cosmos 1745 Rocket 4.1 22:59:06 10° N 23:05:20 57° ENE 23:05:30 57° E
Cosmos 1777 Rocket 4.3 23:01:29 10° NNW 23:06:40 59° WSW 23:06:40 59° WSW
Okean 1-7 4.3 23:07:56 36° W 23:08:18 36° WNW 23:12:24 10° N
Cosmos 1844 Rocket 2.6 23:03:34 10° NNW 23:09:04 81° W 23:09:04 81° W
Terra 2.1 23:10:04 65° NW 23:10:04 65° NW 23:14:12 10° NNW
NOSS 3-1 (C) 4.0 23:11:31 43° ENE 23:11:31 43° ENE 23:16:06 10° NE
deb Chang Zheng 4 4.4 23:07:38 10° NNE 23:10:49 47° N 23:10:49 47° N
Spot 4 4.5 23:13:09 49° NNE 23:13:09 49° NNE 23:16:53 10° N
Meteor 1-27 Rocket 3.9 23:13:00 59° NE 23:13:00 59° NE 23:17:48 10° NNE
USA 229 DEB 4.0 23:06:28 10° SW 23:13:14 65° NW 23:20:11 10° NNE
USA 229 4.0 23:06:32 10° SW 23:13:19 66° NW 23:20:16 10° NNE
Atlas Centaur 2 4.2 23:10:47 10° WSW 23:14:12 24° SW 23:14:12 24° SW
Cosmos 2151 Rocket 4.5 23:14:06 10° NNW 23:17:24 47° NNW 23:17:24 47° NNW
Iridium 4 Rocket 4.5 23:19:06 10° N 23:21:27 32° N 23:21:27 32° N
SL-19 R/B 4.4 23:17:33 10° NNE 23:23:41 75° WNW 23:24:12 70° WSW
NOSS 3-1 (A) 4.3 23:26:28 36° ENE 23:26:28 36° ENE 23:30:29 10° NE
Cosmos 2219 Rocket 2.5 23:28:37 61° NNE 23:28:37 61° NNE 23:33:14 10° NNE
CZ-4C R/B 3.1 23:23:55 10° NNW 23:30:54 61° NE 23:32:08 54° E
H-2A R/B 3.4 23:33:27 28° W 23:33:27 28° W 23:37:43 10° NW
Meteor 1-11 Rocket 3.8 23:28:13 10° NNW 23:33:08 69° NW 23:33:08 69° NW
ASTEX 1 4.5 23:43:30 39° WNW 23:43:30 39° WNW 23:47:35 10° NNW
Cosmos 1553 Rocket 4.2 23:48:00 60° W 23:48:19 61° W 23:54:31 10° N
COSMOS 2428 4.0 23:52:07 29° W 23:53:55 36° WNW 23:59:11 10° N
